Regional Weather Roundup
Issued by NWS

Home | Current Version | Previous Version | Text Only | Print | Product List | Glossary On
Versions: 1 2 3 4 5 6 7 8 9 10 11 12 13 14 15 16 17 18 19 20 21 22 23 24 25 26 27 28 29 30 31 32 33 34 35 36 37 38 39 40 41 42 43 44 45 46 47 48 49 50
000
ASUS46 KPQR 031610
RWROR

OREGON REGIONAL WEATHER ROUNDUP
NATIONAL WEATHER SERVICE PORTLAND OR
900 AM PDT SUN MAY 03 2015

NOTE: "FAIR" INDICATES FEW OR NO CLOUDS BELOW 12,000 FEET WITH
NO SIGNIFICANT WEATHER AND/OR OBSTRUCTIONS TO VISIBILITY.

ORZ001>013-031700-
NORTHWEST OREGON


CITY           SKY/WX    TMP DP  RH WIND       PRES   REMARKS
ASTORIA        CLOUDY    50  47  89 CALM      30.01S
NEWPORT        SUNNY     46  45  93 NE3       30.02S
PORTLAND       MOSUNNY   52  43  71 CALM      29.99S
VANCOUVER WA   SUNNY     52  41  66 VRB3      29.98S
SCAPPOOSE      SUNNY     54  39  57 N10       29.98S
HILLSBORO      SUNNY     52  39  61 CALM      29.98S
AURORA         SUNNY     52  42  69 NE5       29.99S
MCMINNVILLE    SUNNY     51  45  79 CALM      29.99S
SALEM          SUNNY     54  42  64 N5        29.97S
CORVALLIS      SUNNY     55  43  62 E6        29.99S
EUGENE         MOSUNNY   52  45  77 VRB3      29.98S
$$

ORZ021-028-031700-
SOUTHWEST OREGON


CITY           SKY/WX    TMP DP  RH WIND       PRES   REMARKS
NORTH BEND     PTSUNNY   48  48 100 CALM      29.99S
BROOKINGS      CLOUDY    48  48 100 CALM      29.90R
ROSEBURG       SUNNY     52  43  71 VRB3      29.96F
SEXTON SUMMIT  SUNNY     51  33  50 NE5       29.92R
MEDFORD        SUNNY     54  39  57 CALM      29.92S
$$

ORZ014>016-041-031700-
COLUMBIA GORGE


CITY           SKY/WX    TMP DP  RH WIND       PRES   REMARKS
TROUTDALE      SUNNY     51  43  74 NW3       29.97F
THE DALLES     SUNNY     55  41  59 N6        29.97S
$$

ORZ029>031-041-044-049-050-061>064-502-503-505>511-031700-
EASTERN OREGON


CITY           SKY/WX    TMP DP  RH WIND       PRES   REMARKS
REDMOND        SUNNY     51  30  44 NW3       29.96S
BEND             N/A     54  28  37 N5        29.96S
PRINEVILLE     SUNNY     52  30  43 CALM      29.96S
KLAMATH FALLS  SUNNY     54  39  57 SE3       29.94R
LAKEVIEW       SUNNY     54  28  37 S3        29.98S
HERMISTON      SUNNY     55  34  45 NW3       29.97S
PENDLETON      SUNNY     54  33  45 S3        29.96R
JOHN DAY       SUNNY     50  32  50 CALM      29.97S
MEACHAM        SUNNY     54  26  34 CALM      29.96F
LA GRANDE      SUNNY     48  21  34 N3        29.96S
BAKER CITY     SUNNY     51  31  46 NW5       29.96S
BURNS          SUNNY     56  28  34 NE3       29.95S
ROME             N/A     61  25  25 NW3       29.92R
ONTARIO        SUNNY     64  31  28 VRB6      29.92R
$$



USA.gov is the U.S. government's official web portal to all federal, state and local government web resources and services.